カタログに戻る

STARLINK-35789

運用中通信VLEO
NORAD 67113·PAYLOAD·🇺🇸 United States

打ち上げ Dec 15, 2025 から Cape Canaveral Space Force Station

Loading…

次のパス (今後24時間)

TLE

最新Source: CelesTrak SupGP

元期: Sep 15, 2026, 04:05 UTC

1 67113C 25299M   26258.17062500  .00021935  00000+0  79447-3 0  2580
2 67113  43.0030 179.0849 0001360 271.4012  59.4438 15.27568316    13

AllMySatでSTARLINK-35789をリアルタイム追跡

Download on the App Store